Epoch 2012 Apr. 23.0 TT = JDT 2456040.5 T 2012 May 3.73239 TT MPC q 1.7167877 (2000.0) P Q n 0.01518865 Peri. 295.90207 -0.43248781 -0.89875825 a 16.1481661 Node 184.13550 +0.28775478 -0.21329270 e 0.8936853 Incl. 92.83554 -0.85448901 +0.38306636 P 64.9 From 38 observations 2012 Apr. 29-July 16, mean residual 0".4.
m1 = 15.0 + 5 logΔ + 10.0 log r